CST,Max TemperatureF,Mean TemperatureF,Min TemperatureF,Max Dew PointF,MeanDew PointF,Min DewpointF,Max Humidity, Mean Humidity, Min Humidity, Max Sea Level PressureIn, Mean Sea Level PressureIn, Min Sea Level PressureIn, Max VisibilityMiles, Mean VisibilityMiles, Min VisibilityMiles, Max Wind SpeedMPH, Mean Wind SpeedMPH, Max Gust SpeedMPH,PrecipitationIn, CloudCover, Events, WindDirDegrees
2011-11-1,75,63,53,61,56,51,93,69,55,30.23,30.19,30.17,10,10,7,16,7,18,0.00,0,,58
2011-11-2,77,70,64,65,59,54,87,70,50,30.22,30.17,30.12,10,10,9,9,7,16,0.00,2,,88
2011-11-3,80,68,57,70,60,43,94,79,55,30.12,30.07,30.01,10,9,0,18,8,26,0.13,5,Fog-Rain,283
2011-11-4,61,56,53,50,45,40,75,63,57,30.15,30.11,30.07,10,10,10,14,10,22,0.00,1,,355
2011-11-5,72,64,57,60,55,50,80,71,61,30.15,30.12,30.08,10,10,10,15,8,20,0.00,5,,59
2011-11-6,75,70,66,65,63,56,87,80,62,30.20,30.16,30.09,10,9,2,15,8,23,0.28,7,Rain,84
2011-11-7,77,73,69,66,65,61,87,78,66,30.21,30.16,30.08,10,10,10,17,9,24,0.00,4,,90
2011-11-8,80,73,66,68,65,62,87,77,58,30.11,30.06,30.02,10,10,10,12,6,17,0.00,2,,120
2011-11-9,79,69,59,70,63,50,94,83,70,30.12,30.04,30.01,10,9,1,20,7,28,0.15,4,Rain,345
2011-11-10,60,56,53,48,40,32,72,55,39,30.27,30.19,30.12,10,10,10,21,15,32,0.00,1,,351
2011-11-11,62,54,45,43,38,33,93,54,34,30.32,30.28,30.24,10,10,9,10,7,20,0.00,0,,29
2011-11-12,68,56,44,59,52,41,90,76,54,30.28,30.22,30.14,10,10,9,9,4,,0.00,3,,60
2011-11-13,78,68,57,67,63,55,100,82,60,30.14,30.08,30.04,10,9,4,8,3,,0.00,6,Rain,147
2011-11-14,75,72,68,72,69,66,100,91,83,30.06,30.01,29.96,10,6,2,16,6,24,0.06,7,Rain,147
2011-11-15,80,74,69,73,70,68,100,89,74,29.97,29.92,29.85,10,7,2,14,7,18,0.14,6,Rain,181
2011-11-16,80,76,70,73,70,67,94,87,66,29.99,29.90,29.83,10,7,0,21,13,37,0.60,3,Fog-Rain,224
2011-11-17,69,63,55,65,50,37,94,66,41,30.29,30.19,30.01,10,10,9,18,13,30,0.00,3,,360
2011-11-18,66,60,55,56,50,42,80,65,54,30.28,30.23,30.16,10,10,10,13,9,20,0.00,3,,73
2011-11-19,73,67,61,67,64,54,100,88,70,30.19,30.14,30.10,10,6,0,9,4,,0.00,4,Fog,72
2011-11-20,79,72,66,72,68,64,100,92,71,30.23,30.19,30.13,10,5,0,9,4,,0.00,4,Fog,83
2011-11-21,75,70,64,70,68,63,100,93,79,30.24,30.17,30.07,10,4,0,12,4,18,0.00,4,Fog,88
2011-11-22,80,74,69,73,71,69,100,89,74,30.07,30.04,30.00,10,8,4,14,6,21,0.01,3,,181
2011-11-23,75,69,62,72,60,54,94,79,65,30.22,30.12,30.04,10,10,6,14,8,22,0.07,4,Rain,1
2011-11-24,66,63,60,57,55,52,78,73,66,30.29,30.25,30.21,10,10,10,14,11,20,0.00,3,,54
2011-11-25,77,70,63,62,59,55,84,71,52,30.23,30.15,30.08,10,10,10,15,7,22,0.00,5,,101
2011-11-26,78,73,68,70,66,59,94,81,64,30.08,30.01,29.95,10,8,1,18,11,29,0.16,6,Rain,148
2011-11-27,72,61,50,70,57,43,96,86,75,30.07,29.98,29.91,10,8,1,18,11,26,0.37,7,Rain,293
2011-11-28,54,48,39,42,37,31,83,67,48,30.07,30.03,29.96,10,10,9,17,13,24,0.00,3,,296
2011-11-29,62,50,39,44,38,30,82,61,32,30.15,30.07,30.01,10,10,10,15,6,18,0.00,0,,308
2011-11-30,55,50,45,43,40,35,82,65,45,30.23,30.19,30.15,10,10,10,9,7,17,0.00,0,,5